DO1SC Weather Reports


time (UTC)temp
C
wind
direction
speed
KPH
gust
KPH
rain 1hr
cm
rain 24hr
cm
rain mn
cm
humidity
%
barometer
mb
20260506165021 15 264 0.0 3.2 0.00 0.00 0.00 63 1006.1
20260506164036 15 35 0.0 1.6 0.00 0.00 0.00 63 1006.1
20260506163024 16 319 0.0 3.2 0.00 0.00 0.00 62 1006.2
20260506162036 16 275 0.0 4.8 0.00 0.00 0.00 62 1006.2
20260506161028 16 336 0.0 3.2 0.00 0.00 0.00 59 1006.1
20260506160019 16 328 1.6 3.2 0.00 0.00 0.00 59 1006.2
20260506155031 16 330 1.6 4.8 0.00 0.00 0.00 58 1006.1
20260506154022 16 149 1.6 6.4 0.00 0.00 0.00 54 1006.1
20260506153034 16 18 1.6 3.2 0.00 0.00 0.00 56 1006.2
20260506152025 16 352 0.0 3.2 0.00 0.00 0.00 57 1006.3
20260506151020 16 3 1.6 4.8 0.00 0.00 0.00 58 1006.4
20260506150029 16 163 1.6 4.8 0.00 0.00 0.00 58 1006.4
20260506145020 16 312 1.6 3.2 0.00 0.00 0.00 58 1006.5
20260506144032 16 330 3.2 8.0 0.00 0.00 0.00 57 1006.6
20260506143024 16 7 1.6 6.4 0.00 0.00 0.00 56 1006.5
20260506142036 17 318 1.6 6.4 0.00 0.00 0.00 56 1006.5
20260506141027 16 310 1.6 4.8 0.00 0.00 0.00 56 1006.4
20260506140018 16 135 1.6 4.8 0.00 0.00 0.00 58 1006.5
20260506135030 16 34 1.6 4.8 0.00 0.00 0.00 56 1006.6
20260506134022 16 120 1.6 4.8 0.00 0.00 0.00 58 1006.7
20260506133033 16 85 3.2 6.4 0.00 0.00 0.00 56 1006.8
20260506132024 16 7 1.6 4.8 0.00 0.00 0.00 59 1006.8
20260506131036 16 137 1.6 6.4 0.00 0.00 0.00 56 1006.8
20260506130027 16 327 1.6 3.2 0.00 0.00 0.00 58 1006.9
20260506125019 16 141 3.2 8.0 0.00 0.00 0.00 56 1006.9
20260506124031 16 159 3.2 8.0 0.00 0.00 0.00 59 1006.9
20260506123022 16 123 1.6 8.0 0.00 0.00 0.00 58 1007.0
20260506122034 16 132 3.2 6.4 0.00 0.00 0.00 60 1006.9
20260506121528 16 166 1.6 8.0 0.00 0.00 0.00 62 1007.1
20260506120519 16 132 3.2 14.5 0.00 0.00 0.00 65 1007.2
20260506120027 15 152 1.6 8.0 0.00 0.00 0.00 68 1007.1
20260506115019 15 342 1.6 4.8 0.00 0.00 0.00 71 1007.2
20260506114034 15 127 3.2 8.0 0.00 0.00 0.00 70 1007.2
20260506113026 15 115 1.6 8.0 0.00 0.00 0.00 71 1007.2
20260506112017 15 135 1.6 4.8 0.00 0.00 0.00 71 1007.2
20260506111030 14 138 1.6 8.0 0.00 0.00 0.00 71 1007.2
20260506110021 14 31 1.6 3.2 0.00 0.00 0.00 73 1007.2
20260506105033 15 26 1.6 6.4 0.00 0.00 0.00 73 1007.3
20260506104025 15 328 1.6 4.8 0.00 0.00 0.00 71 1007.2
20260506103018 15 22 3.2 4.8 0.00 0.00 0.00 70 1007.3
20260506102028 15 18 1.6 4.8 0.00 0.00 0.00 72 1007.3
20260506101020 14 78 3.2 9.7 0.00 0.00 0.00 73 1007.3
20260506100032 13 86 3.2 9.7 0.00 0.00 0.00 77 1007.3
20260506095023 12 54 1.6 3.2 0.00 0.00 0.00 81 1007.3
20260506094035 13 47 1.6 6.4 0.00 0.00 0.00 79 1007.4
20260506093026 13 81 1.6 4.8 0.00 0.00 0.00 75 1007.4
20260506092020 14 126 3.2 8.0 0.00 0.00 0.00 73 1007.4
20260506091029 14 105 3.2 12.9 0.00 0.00 0.00 74 1007.2
20260506090020 13 93 3.2 12.9 0.00 0.00 0.00 77 1007.2
20260506085032 13 125 4.8 11.3 0.00 0.00 0.00 78 1007.0
20260506084023 12 110 3.2 9.7 0.00 0.00 0.00 80 1007.1
20260506083035 13 79 3.2 8.0 0.00 0.00 0.00 77 1006.9
20260506082027 12 59 1.6 6.4 0.00 0.00 0.00 79 1007.0
20260506081534 12 130 6.4 9.7 0.00 0.00 0.00 79 1006.8
20260506080518 13 110 4.8 11.3 0.00 0.00 0.00 78 1006.8
20260506072525 12 61 4.8 6.4 0.00 0.00 0.00 87 1006.6
20260506071516 11 53 3.2 6.4 0.00 0.00 0.00 88 1006.6
20260506070528 11 55 3.2 8.0 0.00 0.00 0.00 88 1006.7
20260506061527 11 102 3.2 14.5 0.00 0.00 0.00 91 1006.9
20260506060518 11 83 3.2 8.0 0.00 0.00 0.00 93 1006.8
20260506050529 10 89 4.8 8.0 0.00 0.00 0.00 93 1006.7
20260506044532 10 93 4.8 9.7 0.00 0.00 0.00 94 1006.5
20260506043526 10 79 4.8 9.7 0.00 0.00 0.00 95 1006.4
20260506042535 10 92 3.2 9.7 0.00 0.00 0.00 96 1006.3
20260506041528 10 68 3.2 8.0 0.00 0.00 0.00 96 1006.4
20260506040518 10 73 3.2 8.0 0.00 0.00 0.00 96 1006.3
20260506035530 10 79 3.2 8.0 0.00 0.00 0.00 96 1006.3
20260506034522 10 76 4.8 8.0 0.00 0.00 0.00 96 1006.3
20260506033536 11 114 3.2 6.4 0.00 0.00 0.00 96 1006.2
20260506032525 11 98 3.2 6.4 0.00 0.00 0.00 96 1006.3
20260506031516 11 82 3.2 8.0 0.00 0.00 0.00 95 1006.2
20260506030531 11 104 3.2 6.4 0.00 0.00 0.00 95 1006.3
20260506025520 11 112 3.2 6.4 0.00 0.00 0.00 95 1006.4
20260506024532 11 85 3.2 6.4 0.00 0.00 0.00 95 1006.4
20260506023523 11 93 3.2 6.4 0.00 0.00 0.00 95 1006.4
20260506022535 11 92 3.2 9.7 0.00 0.00 0.00 95 1006.5
20260506021530 11 67 3.2 6.4 0.00 0.00 0.00 95 1006.5
20260506020518 11 112 3.2 9.7 0.00 0.00 0.00 95 1006.5
20260506015529 11 63 3.2 6.4 0.00 0.00 0.00 95 1006.5
20260506014521 11 89 3.2 9.7 0.00 0.00 0.00 94 1006.6
20260506013532 11 118 3.2 9.7 0.00 0.00 0.00 95 1006.7
20260506012524 11 86 3.2 9.7 0.00 0.00 0.00 95 1006.7
20260506011536 11 110 3.2 9.7 0.00 0.00 0.00 95 1006.8
20260506010527 11 45 4.8 9.7 0.00 0.00 0.00 95 1006.8
20260506005519 11 110 4.8 9.7 0.00 0.00 0.00 95 1006.7
20260506004531 11 128 3.2 9.7 0.00 0.00 0.00 95 1006.7
20260506003525 11 79 3.2 9.7 0.00 0.00 0.00 96 1006.7
20260506002534 11 62 3.2 8.0 0.00 0.00 0.00 96 1006.9
20260506001525 11 128 4.8 9.7 0.00 0.00 0.00 96 1007.0
20260506000517 11 76 3.2 6.4 0.00 0.00 0.00 96 1007.0
20260505235528 11 101 3.2 8.0 0.00 0.00 0.00 95 1007.2
20260505234523 11 140 6.4 16.1 0.00 0.00 0.00 95 1007.3
20260505233532 11 83 3.2 11.3 0.00 0.00 0.00 95 1007.2
20260505232527 11 63 4.8 9.7 0.00 0.00 0.00 96 1007.1
20260505231535 11 140 4.8 8.0 0.00 0.00 0.00 96 1007.0
20260505230527 11 41 3.2 6.4 0.00 0.00 0.00 96 1007.0
20260505225521 11 79 4.8 14.5 0.00 0.00 0.00 96 1007.1
20260505224530 10 56 3.2 6.4 0.00 0.00 0.00 96 1007.0
20260505223521 10 171 3.2 9.7 0.00 0.00 0.00 96 1007.1
20260505222533 10 117 3.2 8.0 0.00 0.00 0.00 96 1007.1
20260505221527 10 135 4.8 11.3 0.00 0.00 0.00 96 1007.1
20260505220519 10 65 3.2 9.7 0.00 0.00 0.00 96 1007.1
20260505215527 11 53 4.8 9.7 0.00 0.00 0.00 96 1007.3
20260505214521 10 141 1.6 9.7 0.00 0.00 0.00 96 1007.2
20260505213533 10 129 4.8 12.9 0.00 0.00 0.00 96 1007.3
20260505212525 10 158 4.8 9.7 0.00 0.00 0.00 96 1007.2
20260505211533 10 75 4.8 9.7 0.00 0.00 0.00 96 1007.3
20260505210525 10 78 4.8 11.3 0.00 0.00 0.00 96 1007.5
20260505205517 10 96 4.8 9.7 0.00 0.00 0.00 96 1007.6
20260505204532 10 114 4.8 9.7 0.00 0.00 0.00 96 1007.6
20260505203520 10 137 3.2 8.0 0.00 0.00 0.00 96 1007.6
20260505202533 10 109 1.6 6.4 0.00 0.00 0.00 95 1007.5
20260505201524 10 10 0.0 3.2 0.00 0.00 0.00 95 1007.4
20260505200535 11 105 1.6 4.8 0.00 0.00 0.00 94 1007.1
20260505195529 11 303 1.6 4.8 0.00 0.00 0.00 93 1006.8
20260505194517 11 268 0.0 4.8 0.00 0.00 0.00 92 1006.7
20260505193529 11 280 3.2 14.5 0.00 0.00 0.00 91 1006.8
20260505192520 11 277 4.8 14.5 0.00 0.00 0.00 94 1006.9
20260505191532 11 26 1.6 6.4 0.00 0.00 0.00 95 1007.3
20260505190526 11 56 3.2 6.4 0.00 0.00 0.00 94 1007.6
20260505185533 11 47 1.6 4.8 0.00 0.00 0.00 94 1007.7
20260505184524 11 102 4.8 9.7 0.00 0.00 0.00 93 1007.7
20260505183536 11 97 3.2 9.7 0.00 0.00 0.00 92 1007.8
20260505182528 11 108 4.8 11.3 0.00 0.00 0.00 92 1008.1
20260505181519 12 116 3.2 11.3 0.00 0.00 0.00 88 1008.2
20260505180530 13 116 8.0 29.0 0.00 0.00 0.00 84 1008.1
20260505175521 14 297 4.8 11.3 0.00 0.00 0.00 88 1006.8
20260505174533 14 307 4.8 14.5 0.00 0.00 0.00 86 1006.8
20260505173525 14 303 4.8 9.7 0.00 0.00 0.00 85 1006.8
20260505172536 15 294 4.8 14.5 0.00 0.00 0.00 85 1006.8
20260505171525 15 309 9.7 22.5 0.00 0.00 0.00 84 1006.8
20260505170536 15 314 6.4 11.3 0.00 0.00 0.00 83 1006.9
20260505165527 15 304 6.4 12.9 0.00 0.00 0.00 83 1007.0